[[{"header":{"parameterUnit":"m.s-1","parameterCategory":1,"la1":30.2991,"la2":30.254,"lo1":-89.0895,"lo2":-89.0444,"dy":0.0017,"dx":0.0017,"nx":28,"ny":28,"refTime":"2025-06-03T21:00:00:Z","depth":0,"parameterNumber":2,"parameterNumberName":"U-component_of_WINDS"},"data":[0,0,0,0,0,0,0,0,0,0,0,0,0,0,0,0,0,0,0,0,0,0,0,0,0,0,0,0,0,0,0,0,0,0,0,0,0,0,0,0,0,0,0,0,0,0,0,0,0,0,0,0,0,0,0,0,0,0,-4.1867,-4.1868,0,-4.1928,-4.1928,-4.1929,-4.1857,-4.1854,-4.1851,-4.1849,-4.191,-4.1914,-4.1918,0,0,0,0,0,0,0,0,0,0,0,0,0,-4.1689,-4.1692,-4.1867,-4.1868,-4.1869,-4.1927,-4.1928,-4.1929,-4.1857,-4.1854,-4.1851,-4.1848,-4.1908,-4.1913,-4.1918,0,0,0,0,0,0,0,0,0,0,0,0,0,-4.1759,-4.1694,-4.1867,-4.184,-4.1838,-4.1927,-4.1928,-4.1929,-4.1858,-4.1854,-4.185,-4.1846,-4.1907,-4.1913,-4.1919,-4.2037,0,0,-4.1938,-4.194,0,0,0,0,0,0,0,0,-4.1755,-4.1766,-4.1843,-4.1842,-4.184,-4.1881,-4.1887,-4.1965,-4.1859,-4.185,-4.1849,-4.1844,-4.1903,-4.1909,-4.1929,-4.204,-4.2043,-4.1938,-4.1942,-4.1945,-4.1946,0,0,0,0,0,0,0,-4.1751,-4.1763,-4.1891,-4.1844,-4.1843,-4.1824,-4.183,-4.1902,-4.1898,-4.1851,-4.1846,-4.1854,-4.1902,-4.1924,-4.193,-4.2043,-4.1938,-4.1943,-4.1947,-4.195,-4.2253,-4.2257,0,0,0,0,0,0,-4.1749,-4.1759,-4.1889,-4.1893,-4.1787,-4.1831,-4.1837,-4.1872,-4.1898,-4.1898,-4.1857,-4.185,-4.1915,-4.1923,-4.1932,-4.2071,-4.1945,-4.195,-4.1954,-4.2249,-4.2254,-4.2259,0,0,0,0,0,0,-4.1745,-4.1761,-4.1887,-4.1825,-4.1839,-4.1838,-4.1878,-4.1875,-4.1897,-4.1902,-4.1901,-4.1881,-4.1912,-4.1924,-4.2011,-4.2072,-4.1953,-4.1959,-4.2244,-4.225,-4.2256,-4.235,0,0,0,0,0,0,-4.1741,-4.176,-4.1805,-4.1826,-4.1843,-4.1965,-4.1881,-4.1879,-4.1908,-4.1899,-4.1924,-4.1924,-4.191,-4.2003,-4.2018,-4.2078,-4.1963,-4.2238,-4.2247,-4.2254,-4.2341,-4.2359,-4.2374,0,0,0,0,0,-4.1735,-4.1829,-4.1808,-4.1824,-4.1899,-4.1969,-4.1978,-4.196,-4.1913,-4.1958,-4.1962,-4.1923,-4.2064,-4.2012,-4.2028,-4.2092,-4.2234,-4.2244,-4.2254,-4.2334,-4.2355,-4.2373,0,0,0,0,0,0,-4.1815,-4.1831,-4.1808,-4.1912,-4.194,-4.1956,-4.2012,-4.1984,-4.2024,-4.2014,-4.1991,-4.1997,-4.209,-4.21,-4.2042,-4.2207,-4.2141,-4.2155,-4.2197,-4.2217,-4.2233,-4.2227,-4.1969,0,0,0,0,0,-4.1845,-4.19,-4.1912,-4.2003,-4.2018,-4.2013,-4.2043,-4.2027,-4.2054,-4.2065,-4.2075,-4.2102,-4.2152,-4.2186,-4.2232,-4.2344,-4.2347,-4.2396,-4.2412,-4.2425,-4.2436,-4.2494,-4.2515,-4.2291,-4.2291,-4.2291,0,0,-4.1907,-4.1923,-4.1959,-4.2019,-4.2038,-4.2096,-4.2023,-4.2087,-4.2129,-4.2074,-4.2157,-4.2166,-4.2195,-4.2295,-4.234,-4.2306,-4.2499,-4.2438,-4.2448,-4.2452,-4.2506,-4.2528,-4.2547,-4.2298,-4.2296,-4.2295,0,0,-4.2048,-4.2067,-4.2144,-4.2165,-4.2196,-4.2192,-4.2211,-4.2233,-4.2236,-4.232,-4.228,-4.233,-4.2417,-4.2439,-4.2461,-4.2614,-4.2579,-4.263,-4.2713,-4.277,-4.2788,-4.2803,-4.2855,-4.2875,-4.2641,-4.2642,-4.2642,0,-4.212,-4.2206,-4.2187,-4.2254,-4.2281,-4.2236,-4.2313,-4.2335,-4.2379,-4.2398,-4.2361,-4.247,-4.2486,-4.259,-4.2627,-4.2648,-4.2667,-4.2625,-4.2787,-4.2802,-4.2816,-4.2866,-4.2886,-4.2647,-4.2647,-4.2646,-4.2646,0,-4.2292,-4.2352,-4.2411,-4.2455,-4.2489,-4.2561,-4.2553,-4.259,-4.2572,-4.2573,-4.2658,-4.2677,-4.2726,-4.275,-4.2733,-4.2851,-4.283,-4.2791,-4.2723,-4.2844,-4.2889,-4.2908,-4.2656,-4.2653,-4.2652,-4.265,0,0,-4.2482,-4.2517,-4.2538,-4.2557,-4.2589,-4.2634,-4.2705,-4.2753,-4.2784,-4.2817,-4.2874,-4.295,-4.2914,-4.294,-4.2926,-4.2976,-4.3093,-4.2931,-4.2931,-4.2958,-4.3223,-4.3249,-4.3272,-4.3072,-4.3076,-4.3079,-4.3219,0,-4.2622,-4.2743,-4.2729,-4.2844,-4.2899,-4.2858,-4.2919,-4.2944,-4.2948,-4.2994,-4.2997,-4.305,-4.3,-4.3015,-4.3064,-4.3069,-4.3145,-4.3059,-4.3123,-4.3126,-4.3114,-4.3296,-4.3324,-4.3456,-4.3237,-4.324,-4.3243,0,-4.28,-4.284,-4.296,-4.2983,-4.3005,-4.306,-4.3103,-4.3149,-4.3178,-4.3176,-4.3206,-4.3183,-4.3253,-4.3187,-4.3282,-4.3224,-4.325,-4.3257,-4.3261,-4.3264,-4.3189,-4.33,-4.3498,-4.3516,-4.3271,-4.3269,-4.3267,0,-4.2923,-4.3007,-4.309,-4.3108,-4.3137,-4.3177,-4.3191,-4.3215,-4.3246,-4.3284,-4.3303,-4.335,-4.3374,-4.341,-4.34,-4.3354,-4.3497,-4.3431,-4.3497,-4.3497,-4.3526,-4.3523,-4.3727,-4.3549,-4.3548,-4.3548,-4.3548,0,-4.3079,-4.3153,-4.3145,-4.3196,-4.3278,-4.3263,-4.3345,-4.3354,-4.3377,-4.3428,-4.3397,-4.3445,-4.3431,-4.3479,-4.3472,-4.3551,-4.3563,-4.3563,-4.3559,-4.3564,-4.3563,-4.3578,-4.3567,-4.3553,-4.3552,-4.3551,-4.355,0,-4.3228,-4.3226,-4.3313,-4.3335,-4.3342,-4.3402,-4.342,-4.3467,-4.3469,-4.3534,-4.3548,-4.3551,-4.3606,-4.3601,-4.3663,-4.3658,-4.3755,-4.3742,-4.3745,-4.3741,-4.3806,-4.3799,-4.4023,-4.4051,-4.3858,-4.386,-4.3861,0,-4.3326,-4.3382,-4.341,-4.3442,-4.3459,-4.3512,-4.3543,-4.353,-4.3563,-4.3601,-4.3644,-4.3696,-4.3737,-4.3827,-4.3834,-4.3881,-4.3867,-4.3943,-4.3874,-4.3876,-4.3865,-4.386,-4.3865,-4.3955,-4.3957,-4.3959,-4.3961,0,-4.3498,-4.3494,-4.354,-4.3586,-4.3624,-4.3659,-4.3691,-4.372,-4.371,-4.3749,-4.3805,-4.3837,-4.3901,-4.3953,-4.3998,-4.4012,-4.3984,-4.3983,-4.4,-4.4003,-4.4001,-4.4,-4.3778,-4.3977,-4.3975,-4.3974,-4.3973,-4.3972,-4.3622,-4.367,-4.3697,-4.3749,-4.3772,-4.3804,-4.3849,-4.3857,-4.3903,-4.3954,-4.3944,-4.4007,-4.4035,-4.4092,-4.4112,-4.416,-4.4133,-4.4158,-4.4164,-4.417,-4.4176,-4.3997,-4.4169,-4.4168,-4.4168,-4.4168,-4.4167,0,-4.379,-4.3806,-4.3854,-4.39,-4.3941,-4.3914,-4.3949,-4.3984,-4.404,-4.4068,-4.411,-4.4174,-4.4225,-4.4237,-4.4285,-4.4322,-4.4311,-4.4335,-4.433,-4.4333,-4.4199,-4.4178,-4.4343,-4.4343,-4.4343,-4.4343,-4.4343,-4.4343,-4.3882,-4.3961,-4.3961,-4.4052,-4.4067,-4.4128,-4.415,-4.4178,-4.4201,-4.4274,-4.4316,-4.4324,-4.4346,-4.4396,-4.4441,-4.4444,-4.4462,-4.449,-4.4488,-4.4361,-4.4343,-4.4326,-4.4306,-4.4495,-4.4496,-4.4617,-4.4618,-4.4619]},{"header":{"parameterUnit":"m.s-1","parameterCategory":1,"la1":30.2991,"la2":30.254,"lo1":-89.0895,"lo2":-89.0444,"dy":0.0017,"dx":0.0017,"nx":28,"ny":28,"refTime":"2025-06-03T21:00:00:Z","depth":0,"parameterNumber":3,"parameterNumberName":"V-component_of_WINDS"},"data":[0,0,0,0,0,0,0,0,0,0,0,0,0,0,0,0,0,0,0,0,0,0,0,0,0,0,0,0,0,0,0,0,0,0,0,0,0,0,0,0,0,0,0,0,0,0,0,0,0,0,0,0,0,0,0,0,0,0,1.4874,1.4873,0,1.482,1.482,1.4819,1.4711,1.4709,1.4707,1.4705,1.4652,1.4652,1.4653,0,0,0,0,0,0,0,0,0,0,0,0,0,1.4886,1.4887,1.4874,1.4873,1.4873,1.482,1.482,1.4819,1.4711,1.4709,1.4706,1.4704,1.4651,1.4652,1.4653,0,0,0,0,0,0,0,0,0,0,0,0,0,1.4862,1.4887,1.4874,1.4813,1.4807,1.4821,1.482,1.4819,1.4712,1.4709,1.4706,1.4703,1.4651,1.4652,1.4653,1.4723,0,0,1.4656,1.4656,0,0,0,0,0,0,0,0,1.4863,1.4862,1.4822,1.4817,1.481,1.4769,1.4804,1.4787,1.4713,1.4748,1.4705,1.4701,1.4693,1.4691,1.4688,1.472,1.4718,1.4656,1.4656,1.4657,1.4657,0,0,0,0,0,0,0,1.4865,1.4863,1.4853,1.4822,1.4815,1.4789,1.4782,1.4801,1.474,1.4745,1.4737,1.4732,1.469,1.4687,1.4686,1.4717,1.4656,1.4657,1.4657,1.4657,1.4806,1.481,0,0,0,0,0,0,1.4876,1.4865,1.4854,1.4851,1.4829,1.4791,1.4783,1.4786,1.4739,1.4729,1.4735,1.4727,1.4687,1.4685,1.4683,1.4762,1.4657,1.4657,1.4658,1.4803,1.4807,1.4811,0,0,0,0,0,0,1.4876,1.4876,1.4857,1.4856,1.4852,1.4794,1.4798,1.4786,1.4783,1.4731,1.472,1.4743,1.4685,1.4682,1.4714,1.4759,1.4658,1.4659,1.4799,1.4804,1.4809,1.4922,0,0,0,0,0,0,1.4877,1.4876,1.4901,1.4857,1.4852,1.4887,1.4801,1.4787,1.4785,1.4775,1.4736,1.4727,1.4682,1.4713,1.4715,1.4759,1.4659,1.4795,1.4801,1.4807,1.4913,1.493,1.4944,0,0,0,0,0,1.4878,1.4935,1.4903,1.4903,1.4882,1.489,1.4887,1.4834,1.4789,1.4814,1.4781,1.4728,1.4755,1.4718,1.4718,1.4763,1.4792,1.4799,1.4807,1.4907,1.4927,1.4944,0,0,0,0,0,0,1.4986,1.4928,1.4892,1.4937,1.4919,1.4872,1.4902,1.4856,1.4851,1.4842,1.4776,1.4769,1.481,1.4789,1.4749,1.4829,1.4765,1.4773,1.484,1.4859,1.4874,1.4877,1.466,0,0,0,0,0,1.5015,1.5026,1.4975,1.502,1.5013,1.496,1.4961,1.4921,1.4901,1.4893,1.4862,1.4844,1.4849,1.4853,1.4854,1.4911,1.4901,1.4942,1.4958,1.497,1.4978,1.5007,1.5025,1.4836,1.4836,1.4836,0,0,1.5075,1.5045,1.5056,1.5041,1.5022,1.5036,1.4954,1.4971,1.4981,1.4895,1.4923,1.4901,1.4877,1.4922,1.4941,1.4907,1.5028,1.498,1.4991,1.4991,1.5017,1.5035,1.5051,1.4841,1.4841,1.484,0,0,1.5191,1.517,1.5204,1.5188,1.5162,1.5126,1.5135,1.5095,1.5077,1.5104,1.5041,1.5052,1.5061,1.5047,1.5041,1.5155,1.5107,1.5158,1.5237,1.5266,1.5281,1.5294,1.5335,1.5351,1.5166,1.5166,1.5166,0,1.5269,1.5286,1.5228,1.525,1.5246,1.517,1.5206,1.5193,1.5169,1.5168,1.5131,1.5141,1.512,1.5161,1.519,1.5188,1.5196,1.5161,1.5284,1.5296,1.5307,1.5346,1.5361,1.5172,1.5172,1.5171,1.517,0,1.5383,1.5397,1.5428,1.5406,1.5406,1.5435,1.5383,1.539,1.5352,1.5321,1.535,1.5323,1.5317,1.5325,1.5287,1.5362,1.5341,1.5295,1.5229,1.5333,1.5368,1.5382,1.5182,1.5179,1.5177,1.5176,0,0,1.5563,1.5511,1.5524,1.5514,1.548,1.549,1.5516,1.5511,1.5518,1.5505,1.5526,1.5537,1.5494,1.5488,1.5449,1.5475,1.5568,1.5425,1.5424,1.5453,1.5649,1.5683,1.5701,1.5536,1.5539,1.5541,1.5651,0,1.5671,1.5712,1.5662,1.5714,1.5726,1.5656,1.5679,1.5662,1.5635,1.5642,1.5612,1.5621,1.5564,1.556,1.5583,1.5552,1.5607,1.5543,1.5556,1.5557,1.5563,1.5719,1.5755,1.586,1.5664,1.5666,1.5668,0,1.5801,1.5795,1.5848,1.5813,1.5816,1.5838,1.583,1.5837,1.5818,1.5796,1.5791,1.5744,1.5769,1.5706,1.574,1.5698,1.5701,1.5687,1.569,1.5688,1.5618,1.5721,1.5892,1.5908,1.5689,1.5687,1.5686,0,1.5927,1.5932,1.5964,1.5958,1.5918,1.5935,1.5919,1.5896,1.5897,1.5891,1.5891,1.5888,1.5886,1.5886,1.5841,1.5799,1.5881,1.5814,1.5864,1.5865,1.5883,1.5882,1.6056,1.5887,1.5886,1.5886,1.5886,0,1.6052,1.6088,1.602,1.604,1.6079,1.6023,1.6062,1.604,1.602,1.6036,1.5976,1.5992,1.5931,1.5941,1.5906,1.594,1.594,1.5924,1.5914,1.5928,1.5931,1.5928,1.5919,1.589,1.5889,1.5889,1.5888,0,1.6198,1.6154,1.6185,1.6146,1.6137,1.6167,1.6133,1.6151,1.6121,1.6141,1.6143,1.6096,1.6105,1.606,1.6061,1.6037,1.6089,1.6067,1.6095,1.6088,1.6141,1.6137,1.6319,1.634,1.6158,1.616,1.6161,0,1.628,1.6305,1.6269,1.6275,1.6262,1.6273,1.6273,1.622,1.6223,1.6204,1.6225,1.6229,1.6229,1.6247,1.6213,1.6214,1.6192,1.6256,1.6191,1.6206,1.6192,1.6191,1.6194,1.6268,1.6271,1.6273,1.6274,0,1.643,1.6408,1.641,1.6407,1.6409,1.6404,1.6395,1.6403,1.6346,1.6353,1.6361,1.6362,1.6364,1.6369,1.6363,1.6348,1.6302,1.6295,1.6307,1.6321,1.6336,1.6329,1.6131,1.629,1.6289,1.6288,1.6287,1.6286,1.6546,1.6566,1.6544,1.6549,1.6537,1.653,1.6545,1.6518,1.6523,1.652,1.6489,1.6504,1.6486,1.6474,1.6463,1.6475,1.6445,1.6462,1.6466,1.6471,1.648,1.6336,1.6474,1.6473,1.6473,1.6472,1.6472,0,1.6692,1.6675,1.6681,1.667,1.6676,1.6632,1.6621,1.6628,1.6641,1.6628,1.663,1.6641,1.6646,1.6614,1.6616,1.6631,1.661,1.6633,1.6631,1.6629,1.6507,1.6496,1.665,1.665,1.665,1.665,1.665,1.665,1.6769,1.6801,1.6777,1.6802,1.6785,1.6799,1.6796,1.679,1.6779,1.6794,1.6798,1.6777,1.6757,1.6757,1.676,1.6751,1.6754,1.6784,1.6768,1.6654,1.6637,1.662,1.661,1.6786,1.6786,1.6888,1.6889,1.689]}]]